Wind_Speed
14 13 12 12 13 13 13 13 12 13 14 14 14 15 15 16 18 19 22 24 26 28 29 30 31 32 34 36 37 39 39 40 39 39 39 38 37 37 36 36 36 35
13 12 13 13 13 13 13 13 13 13 14 14 15 16 17 18 20 22 24 26 27 29 30 31 32 34 36 37 39 40 40 40 40 39 38 38 37 37 36 36 35 35
13 13 13 13 12 12 12 12 12 13 14 15 16 17 18 20 21 23 25 27 29 30 31 32 34 35 37 39 40 41 41 41 40 39 38 37 37 36 36 35 35 36
14 14 13 12 12 12 11 11 11 12 14 15 16 18 19 21 22 24 26 28 30 32 33 34 35 37 38 40 41 41 42 41 40 39 37 36 36 35 35 36 37 38
14 14 13 13 13 12 12 12 12 13 14 16 17 19 20 22 24 26 28 30 32 33 35 36 36 38 39 40 41 42 42 41 39 38 37 36 36 36 36 37 38 40
15 15 15 15 14 14 13 13 13 14 15 17 19 21 22 24 26 28 30 32 33 35 36 37 38 39 40 41 42 42 41 40 38 37 36 36 36 37 38 39 40 41
17 17 17 16 16 15 14 14 14 15 17 20 21 22 24 26 28 30 31 33 35 36 37 38 39 40 41 41 42 42 41 39 38 37 37 37 37 38 39 40 41 42
19 18 18 17 16 16 15 15 16 18 20 21 22 24 26 27 29 31 32 34 36 38 39 39 40 41 41 42 42 41 40 39 38 38 38 38 39 39 40 41 42 43
20 19 18 18 17 17 17 17 18 20 22 23 24 26 28 29 31 32 34 36 37 39 40 40 41 41 41 41 41 41 40 39 38 38 39 39 39 40 41 42 43 44
20 20 20 19 19 19 19 19 20 22 23 25 27 29 30 31 32 34 35 37 38 40 40 41 41 41 41 41 41 40 40 39 39 39 39 39 39 40 41 42 43 44
21 21 21 21 22 22 21 22 22 23 25 27 29 31 32 33 34 35 36 38 39 40 40 41 41 41 41 41 40 40 40 39 39 39 39 39 40 40 41 42 44 45
23 23 23 24 24 24 24 24 25 26 27 29 31 33 34 35 35 36 37 38 39 40 40 41 41 41 41 40 40 40 39 39 38 38 39 39 40 41 42 43 45 47
26 26 26 26 26 26 26 26 28 29 30 32 34 35 36 36 36 36 37 38 39 39 40 41 41 41 40 40 40 39 39 38 38 38 39 39 40 41 42 44 46 48
28 28 27 26 26 27 28 29 30 32 33 35 36 37 37 37 36 37 37 38 39 39 40 41 41 41 40 40 40 39 38 38 38 38 38 39 40 42 44 46 47 49
30 29 28 27 27 28 30 32 33 34 36 37 38 38 37 37 36 37 37 38 38 39 39 40 41 40 40 40 39 38 38 38 38 38 39 40 42 43 45 47 48 48
30 30 29 29 29 30 32 34 35 36 37 38 37 37 36 36 36 37 37 37 37 38 39 40 40 40 40 40 39 38 39 39 39 39 40 41 43 45 46 47 47 47
32 31 32 31 32 33 34 35 36 37 37 37 36 36 36 37 37 37 36 36 37 37 38 39 39 40 41 40 39 39 40 39 39 40 42 43 44 45 45 45 46 46
32 33 34 34 34 35 36 37 37 38 37 37 36 36 37 38 37 36 35 35 36 37 37 38 39 40 41 41 40 40 40 40 40 41 43 44 44 44 44 44 44 44
33 34 35 35 36 37 38 38 38 38 38 37 37 38 38 38 37 35 34 35 36 36 37 38 39 40 42 41 41 41 41 41 41 42 43 43 42 42 42 43 43 42
35 36 36 37 38 38 39 39 39 39 39 39 39 39 39 38 36 34 34 35 36 36 37 38 39 41 42 42 42 41 41 41 42 43 42 41 40 41 41 42 41 39
37 38 38 39 40 40 40 40 41 41 41 40 40 39 38 36 35 34 34 35 36 37 37 39 40 41 43 42 41 41 41 41 42 41 39 38 39 40 40 40 38 36
39 39 39 40 41 41 42 42 42 41 41 40 39 38 37 35 34 34 35 36 36 37 38 39 41 42 43 42 40 40 41 40 39 38 36 37 38 38 38 37 35 33
40 40 40 41 42 42 42 41 41 41 40 39 38 37 36 35 34 34 35 36 37 38 39 40 42 43 42 39 39 40 40 38 36 34 34 36 36 37 36 34 32 31
41 41 41 42 42 41 41 40 40 39 39 38 37 36 35 35 35 35 36 36 37 38 38 40 42 42 39 38 39 39 37 35 33 32 33 35 35 35 33 31 30 30
41 42 42 41 41 40 40 39 39 39 39 38 37 36 35 35 35 35 35 36 37 37 38 41 42 38 36 38 38 36 33 31 31 32 33 33 33 32 30 29 29 28
41 41 40 40 39 39 39 38 38 38 38 37 37 36 36 34 34 35 35 36 36 36 39 41 39 36 36 37 36 32 29 29 30 31 32 32 31 30 29 29 28 26
Wind_Direction
239 241 244 247 252 258 265 272 279 282 283 285 288 290 291 293 295 297 298 299 299 301 303 305 306 307 308 309 310 311 311 310 309 309 308 307 307 307 307 307 306 306
241 243 247 251 255 262 270 276 281 282 284 286 287 289 291 293 295 296 297 299 301 304 307 308 308 309 310 311 312 312 312 311 310 309 308 307 306 307 307 307 306 307
240 243 247 253 260 267 273 277 279 281 282 283 284 287 291 293 294 296 298 302 306 309 310 311 310 310 311 312 312 312 311 311 309 308 307 306 307 307 307 306 307 308
241 245 252 259 267 271 273 275 276 276 277 280 284 288 291 293 296 299 303 306 310 312 313 312 312 311 311 311 311 311 311 310 309 308 307 307 307 307 307 307 309 309
244 249 256 262 264 264 265 268 271 274 278 283 287 290 293 297 301 304 307 309 312 313 313 312 312 311 311 311 311 311 311 311 309 308 308 307 307 307 308 309 309 309
245 250 254 257 258 260 264 269 274 278 283 286 290 294 298 302 305 307 308 310 312 313 313 312 310 310 310 311 312 312 312 311 310 308 308 308 307 308 308 308 309 308
244 248 252 257 261 267 272 275 278 282 285 289 293 298 302 304 305 306 307 309 310 311 311 311 310 310 311 312 312 312 312 311 309 309 308 308 308 308 309 309 309 309
245 250 255 261 266 272 275 277 280 284 288 292 296 300 302 303 304 305 306 307 309 310 310 310 310 311 312 312 312 312 311 310 310 309 308 308 309 309 310 311 311 311
251 256 261 266 271 274 276 277 281 285 289 293 297 300 301 302 304 304 305 306 307 309 309 310 311 312 313 313 312 312 311 311 310 309 309 310 310 311 312 313 313 313
256 261 266 270 274 274 274 276 280 284 288 292 295 297 299 301 302 303 303 304 306 308 309 310 311 313 313 312 312 312 312 312 311 311 311 312 313 314 315 315 315 315
257 264 268 271 273 272 270 273 277 282 286 290 293 294 297 299 300 301 301 303 305 307 308 309 311 313 313 312 313 313 314 314 314 314 313 314 315 316 317 317 317 317
258 265 269 271 271 269 269 273 278 282 286 289 291 293 296 298 298 298 299 302 304 306 307 309 311 313 312 312 314 315 316 316 316 316 316 316 317 318 318 318 318 318
261 265 268 269 269 271 274 278 281 285 287 289 291 293 294 295 295 296 299 302 304 305 307 309 311 313 312 313 315 316 317 317 317 317 317 318 318 319 320 320 319 319
263 266 267 267 270 274 277 279 282 285 288 289 291 292 292 293 293 295 298 301 302 304 306 308 311 312 313 315 317 318 318 318 318 318 318 319 319 320 321 320 319 319
266 269 269 268 270 275 277 279 283 285 287 289 290 290 289 290 292 295 298 300 301 303 306 308 311 312 314 317 319 320 320 319 318 318 318 319 320 320 321 320 319 318
268 272 272 271 272 274 277 281 284 285 287 288 287 287 287 288 291 294 297 298 300 303 306 309 310 312 315 318 319 320 321 320 319 318 318 319 320 320 319 318 318 319
271 274 274 275 275 277 279 282 284 285 285 285 285 285 286 288 291 294 296 297 299 302 306 308 310 311 314 317 318 319 320 319 319 319 320 320 320 319 318 317 318 320
275 276 276 277 278 279 281 282 282 283 283 284 284 285 286 288 291 293 295 296 299 302 305 307 308 310 313 316 317 318 319 320 320 320 321 320 319 317 316 317 319 322
275 276 276 278 278 279 280 280 281 282 283 284 284 284 286 289 291 292 294 296 298 302 304 305 307 308 311 314 316 317 319 320 320 320 320 318 317 316 316 318 321 324
272 273 274 276 276 277 278 279 280 281 282 283 284 284 286 288 290 291 292 295 298 300 302 304 305 307 310 313 314 316 318 319 319 319 318 316 315 315 317 320 323 326
269 271 272 273 274 275 276 278 280 281 282 283 283 284 285 287 288 290 292 295 297 299 302 303 304 306 309 311 313 315 317 318 318 317 316 315 315 316 319 323 325 326
268 270 271 272 274 275 277 278 279 280 281 282 282 283 285 286 288 290 292 295 297 299 301 302 304 306 308 309 311 314 316 316 315 314 314 314 315 318 322 324 326 327
268 270 271 272 274 275 277 278 278 279 280 281 282 283 285 287 288 290 292 294 296 299 301 302 304 306 307 309 311 314 314 314 313 313 313 314 317 321 323 324 327 326
269 270 272 273 274 275 276 277 278 279 281 282 283 284 285 287 288 290 292 294 296 299 300 302 304 306 307 310 312 312 311 311 311 311 312 316 319 322 323 325 326 323
269 270 271 273 274 275 276 277 279 281 282 283 283 284 285 287 288 290 292 294 296 298 301 303 305 306 308 310 310 309 308 309 310 311 314 318 321 323 325 325 323 320
269 270 271 272 273 274 276 278 280 281 282 283 284 284 284 285 287 290 291 293 296 299 302 305 306 307 308 308 307 306 307 309 310 313 317 320 321 323 325 322 319 319
Height
5805 5805 5806 5806 5806 5806 5806 5806 5806 5806 5806 5806 5806 5806 5806 5806 5805 5804 5804 5802 5801 5800 5799 5797 5795 5793 5791 5789 5787 5784 5782 5779 5777 5774 5773 5771 5769 5767 5766 5764 5762 5760
5803 5804 5804 5804 5804 5804 5803 5804 5804 5804 5804 5804 5804 5804 5804 5803 5803 5802 5801 5800 5799 5797 5796 5794 5792 5789 5787 5785 5783 5780 5778 5775 5773 5771 5769 5767 5765 5764 5762 5760 5758 5756
5802 5802 5802 5802 5801 5801 5801 5802 5802 5802 5802 5802 5802 5802 5801 5801 5800 5800 5799 5797 5796 5794 5792 5790 5788 5786 5783 5781 5779 5776 5774 5772 5769 5767 5765 5763 5762 5760 5758 5756 5754 5751
5800 5800 5799 5799 5799 5799 5799 5800 5800 5801 5801 5800 5800 5800 5799 5799 5798 5797 5796 5794 5792 5790 5789 5787 5784 5782 5780 5778 5775 5773 5770 5768 5766 5764 5762 5760 5758 5756 5754 5751 5749 5747
5798 5797 5797 5797 5798 5798 5798 5799 5799 5799 5799 5798 5798 5797 5797 5796 5795 5794 5792 5791 5789 5787 5785 5783 5781 5779 5777 5775 5772 5769 5767 5764 5762 5760 5758 5756 5754 5752 5750 5747 5745 5742
5796 5796 5796 5796 5797 5797 5797 5797 5797 5797 5796 5796 5795 5795 5794 5793 5792 5791 5789 5788 5786 5784 5782 5780 5778 5776 5774 5771 5768 5765 5763 5760 5758 5756 5754 5752 5750 5748 5746 5743 5741 5738
5794 5794 5795 5795 5795 5794 5794 5794 5794 5794 5793 5793 5792 5792 5791 5790 5789 5788 5786 5785 5783 5781 5779 5777 5775 5773 5770 5767 5765 5762 5759 5757 5754 5752 5750 5748 5746 5744 5741 5739 5736 5734
5792 5792 5793 5793 5792 5792 5792 5792 5792 5791 5791 5790 5789 5789 5788 5787 5786 5785 5783 5782 5780 5778 5776 5774 5771 5769 5766 5764 5761 5759 5756 5754 5751 5749 5746 5744 5742 5740 5737 5734 5732 5729
5790 5790 5790 5790 5789 5789 5789 5789 5789 5789 5788 5787 5787 5786 5785 5784 5783 5782 5780 5779 5777 5775 5773 5770 5768 5765 5763 5761 5758 5756 5753 5750 5748 5745 5743 5740 5738 5736 5733 5730 5728 5725
5788 5788 5788 5787 5787 5787 5787 5787 5787 5786 5785 5784 5784 5783 5782 5781 5780 5779 5777 5775 5774 5771 5769 5767 5765 5762 5760 5757 5755 5752 5750 5747 5744 5741 5739 5736 5734 5732 5729 5727 5724 5721
5785 5785 5785 5785 5785 5785 5785 5784 5784 5783 5782 5781 5781 5780 5779 5778 5776 5775 5774 5772 5770 5768 5766 5764 5761 5759 5757 5754 5752 5749 5746 5743 5741 5738 5735 5733 5730 5728 5725 5722 5719 5716
5782 5782 5782 5782 5782 5782 5782 5781 5780 5780 5779 5778 5777 5776 5775 5774 5773 5772 5770 5768 5767 5765 5762 5760 5758 5756 5754 5751 5749 5746 5743 5740 5737 5735 5732 5729 5727 5724 5721 5718 5715 5711
5779 5779 5779 5779 5779 5779 5778 5778 5777 5776 5775 5775 5774 5773 5772 5771 5769 5768 5767 5765 5763 5761 5759 5757 5755 5753 5750 5748 5745 5742 5739 5736 5734 5731 5729 5726 5723 5720 5717 5714 5710 5706
5776 5776 5777 5776 5776 5775 5774 5774 5773 5773 5772 5771 5770 5769 5768 5767 5766 5764 5763 5761 5759 5757 5756 5754 5752 5749 5747 5744 5742 5739 5736 5733 5730 5728 5725 5722 5719 5716 5713 5710 5706 5702
5772 5773 5772 5772 5772 5772 5771 5770 5770 5769 5768 5767 5767 5766 5765 5763 5762 5761 5759 5758 5756 5754 5752 5750 5748 5746 5743 5741 5738 5735 5733 5730 5727 5724 5722 5719 5716 5713 5709 5705 5702 5698
5769 5769 5768 5769 5769 5768 5767 5767 5766 5765 5764 5764 5763 5762 5761 5760 5758 5757 5756 5754 5752 5750 5748 5746 5744 5742 5740 5737 5734 5732 5729 5726 5723 5720 5718 5715 5712 5708 5705 5702 5698 5694
5765 5765 5765 5765 5765 5764 5764 5763 5762 5761 5761 5760 5759 5758 5757 5756 5755 5753 5752 5750 5748 5747 5745 5743 5741 5738 5736 5734 5731 5728 5725 5722 5720 5717 5714 5711 5708 5705 5701 5698 5694 5691
5761 5761 5761 5760 5761 5760 5759 5759 5758 5757 5757 5756 5755 5754 5753 5752 5751 5749 5748 5746 5745 5743 5741 5739 5737 5734 5732 5730 5727 5724 5721 5718 5716 5713 5710 5707 5704 5701 5698 5694 5691 5687
5758 5757 5757 5757 5757 5756 5755 5755 5754 5754 5753 5753 5752 5750 5749 5748 5747 5745 5744 5742 5741 5739 5737 5735 5733 5731 5728 5726 5723 5720 5717 5714 5712 5709 5706 5703 5700 5697 5694 5691 5687 5683
5754 5754 5753 5753 5753 5752 5751 5751 5750 5750 5749 5749 5747 5746 5745 5744 5742 5741 5740 5738 5737 5735 5733 5731 5729 5727 5724 5722 5719 5716 5713 5710 5707 5705 5702 5699 5697 5694 5691 5687 5684 5681
5750 5750 5750 5749 5749 5748 5747 5747 5746 5746 5745 5744 5743 5742 5741 5739 5738 5737 5736 5734 5733 5731 5729 5727 5725 5723 5720 5718 5715 5712 5709 5706 5703 5701 5698 5696 5694 5691 5687 5684 5681 5678
5746 5746 5746 5745 5744 5744 5743 5743 5742 5741 5741 5740 5739 5738 5736 5735 5734 5732 5731 5730 5728 5727 5725 5723 5721 5718 5716 5714 5711 5708 5705 5702 5699 5697 5695 5693 5690 5687 5684 5681 5678 5675
5742 5742 5741 5741 5740 5739 5739 5738 5737 5737 5736 5735 5734 5733 5732 5731 5729 5728 5727 5726 5724 5723 5721 5719 5717 5714 5712 5709 5707 5704 5701 5699 5696 5694 5692 5690 5687 5684 5681 5679 5676 5673
5737 5737 5736 5736 5736 5735 5734 5733 5733 5732 5732 5730 5729 5728 5727 5726 5725 5724 5723 5721 5720 5718 5717 5714 5712 5710 5707 5705 5702 5700 5698 5695 5693 5691 5689 5686 5684 5681 5679 5676 5674 5671
5733 5732 5732 5731 5731 5731 5730 5729 5728 5728 5727 5726 5725 5724 5723 5722 5721 5719 5718 5717 5716 5714 5712 5710 5708 5705 5703 5701 5698 5696 5694 5692 5690 5688 5686 5683 5681 5678 5676 5674 5672 5669
5728 5727 5727 5727 5726 5726 5725 5724 5723 5723 5722 5721 5720 5719 5718 5717 5716 5715 5714 5713 5711 5710 5707 5705 5703 5701 5699 5697 5695 5693 5691 5689 5687 5685 5683 5680 5678 5676 5673 5672 5670 5667